Time,TemperatureF,DewpointF,PressureIn,WindDirection,WindDirectionDegrees,WindSpeedMPH,WindSpeedGustMPH,Humidity,HourlyPrecipIn,Conditions,Clouds,dailyrainin,SolarRadiationWatts/m^2,SoftwareType,DateUTC
2013-08-05 00:00:00,78.6,74.8,29.95,SSW,205,0.0,0.0,88,0.00,,,0.00,0.0,meteohub,2013-08-05 04:00:00,
2013-08-05 00:01:00,78.6,74.8,29.95,SSW,205,0.0,0.0,88,0.00,,,0.00,0.0,meteohub,2013-08-05 04:01:00,
2013-08-05 00:02:00,78.6,74.8,29.95,SSW,205,0.0,0.0,88,0.00,,,0.00,0.0,meteohub,2013-08-05 04:02:00,
2013-08-05 00:07:00,78.6,74.8,29.95,SSW,205,0.0,0.0,88,0.00,,,0.00,0.0,meteohub,2013-08-05 04:07:00,
2013-08-05 00:12:00,78.6,75.0,29.96,SSW,205,0.0,0.0,89,0.00,,,0.00,0.0,meteohub,2013-08-05 04:12:00,
2013-08-05 00:17:00,78.6,75.0,29.95,SSW,205,0.0,0.0,89,0.00,,,0.00,0.0,meteohub,2013-08-05 04:17:00,
2013-08-05 00:22:00,78.4,74.8,29.95,SSW,205,0.0,0.0,89,0.00,,,0.00,0.0,meteohub,2013-08-05 04:22:00,
2013-08-05 00:27:00,78.4,74.8,29.94,SSW,205,0.0,0.0,89,0.00,,,0.00,0.0,meteohub,2013-08-05 04:27:00,
2013-08-05 00:32:00,78.3,74.7,29.94,SSW,205,0.0,0.0,89,0.00,,,0.00,0.0,meteohub,2013-08-05 04:32:00,
2013-08-05 00:37:00,78.1,74.5,29.94,SSW,205,0.0,0.0,89,0.00,,,0.00,0.0,meteohub,2013-08-05 04:37:00,
2013-08-05 00:42:00,78.1,74.8,29.94,SSW,205,0.0,0.0,90,0.00,,,0.00,0.0,meteohub,2013-08-05 04:42:00,
2013-08-05 00:47:00,78.1,74.8,29.94,SSW,205,0.0,0.0,90,0.00,,,0.00,0.0,meteohub,2013-08-05 04:47:00,
2013-08-05 00:52:00,78.1,75.2,29.94,SSW,205,0.0,0.0,91,0.00,,,0.00,0.0,meteohub,2013-08-05 04:52:00,
2013-08-05 00:58:00,77.7,74.8,29.94,SSW,205,0.0,0.0,91,0.00,,,0.00,0.0,meteohub,2013-08-05 04:58:00,
2013-08-05 01:02:00,77.5,74.7,29.94,SSW,205,0.0,0.0,91,0.00,,,0.00,0.0,meteohub,2013-08-05 05:02:00,
2013-08-05 01:07:00,77.4,74.5,29.94,SSW,205,0.0,0.0,91,0.00,,,0.00,0.0,meteohub,2013-08-05 05:07:00,
2013-08-05 01:13:00,77.2,74.3,29.94,SSW,205,0.0,0.0,91,0.00,,,0.00,0.0,meteohub,2013-08-05 05:13:00,
2013-08-05 01:17:00,77.0,74.5,29.94,SSW,205,0.0,0.0,92,0.00,,,0.00,0.0,meteohub,2013-08-05 05:17:00,
2013-08-05 01:23:00,77.0,74.5,29.94,SSW,205,0.0,0.0,92,0.00,,,0.00,0.0,meteohub,2013-08-05 05:23:00,
2013-08-05 01:28:00,76.8,73.9,29.94,SSW,205,0.0,0.0,91,0.00,,,0.00,0.0,meteohub,2013-08-05 05:28:00,
2013-08-05 01:32:00,76.8,73.9,29.93,SSW,205,0.0,0.0,91,0.00,,,0.00,0.0,meteohub,2013-08-05 05:32:00,
2013-08-05 01:38:00,76.8,74.3,29.93,SSW,205,0.0,0.0,92,0.00,,,0.00,0.0,meteohub,2013-08-05 05:38:00,
2013-08-05 01:43:00,76.8,74.3,29.93,SSW,205,0.0,0.0,92,0.00,,,0.00,0.0,meteohub,2013-08-05 05:43:00,
2013-08-05 01:48:00,76.6,74.1,29.93,SSW,205,0.0,0.0,92,0.00,,,0.00,0.0,meteohub,2013-08-05 05:48:00,
2013-08-05 01:53:00,76.5,73.9,29.93,SSW,205,0.0,0.0,92,0.00,,,0.00,0.0,meteohub,2013-08-05 05:53:00,
2013-08-05 01:58:00,76.5,73.9,29.93,SSW,205,0.0,0.0,92,0.00,,,0.00,0.0,meteohub,2013-08-05 05:58:00,
2013-08-05 02:03:00,76.3,73.8,29.92,SSW,205,0.0,0.0,92,0.00,,,0.00,0.0,meteohub,2013-08-05 06:03:00,
2013-08-05 02:08:00,76.3,73.8,29.92,SSW,205,0.0,0.0,92,0.00,,,0.00,0.0,meteohub,2013-08-05 06:08:00,
2013-08-05 02:13:00,76.3,73.8,29.92,SSW,205,0.0,0.0,92,0.00,,,0.00,0.0,meteohub,2013-08-05 06:13:00,
2013-08-05 02:18:00,76.3,74.1,29.92,SSW,205,0.0,0.0,93,0.00,,,0.00,0.0,meteohub,2013-08-05 06:18:00,
2013-08-05 02:23:00,76.3,74.1,29.92,SSW,205,0.0,0.0,93,0.00,,,0.00,0.0,meteohub,2013-08-05 06:23:00,
2013-08-05 02:28:00,75.9,73.8,29.92,SSW,205,0.0,0.0,93,0.00,,,0.00,0.0,meteohub,2013-08-05 06:28:00,
2013-08-05 02:33:00,75.9,73.8,29.92,SSW,205,0.0,0.0,93,0.00,,,0.00,0.0,meteohub,2013-08-05 06:33:00,
2013-08-05 02:38:00,75.7,73.6,29.92,SSW,205,0.0,0.0,93,0.00,,,0.00,0.0,meteohub,2013-08-05 06:38:00,
2013-08-05 02:43:00,75.6,73.4,29.92,SSW,205,0.0,0.0,93,0.00,,,0.00,0.0,meteohub,2013-08-05 06:43:00,
2013-08-05 02:48:00,75.4,73.2,29.92,SSW,205,0.0,0.0,93,0.00,,,0.00,0.0,meteohub,2013-08-05 06:48:00,
2013-08-05 02:53:00,75.4,73.6,29.91,SSW,205,0.0,0.0,94,0.00,,,0.00,0.0,meteohub,2013-08-05 06:53:00,
2013-08-05 02:58:00,75.4,73.6,29.91,SSW,205,0.0,0.0,94,0.00,,,0.00,0.0,meteohub,2013-08-05 06:58:00,
2013-08-05 03:03:00,75.2,73.4,29.91,SSW,205,1.0,2.0,94,0.00,,,0.00,0.0,meteohub,2013-08-05 07:03:00,
2013-08-05 03:08:00,75.2,73.4,29.91,SSW,205,0.0,2.0,94,0.00,,,0.00,0.0,meteohub,2013-08-05 07:08:00,
2013-08-05 03:13:00,75.2,73.4,29.91,SSW,205,0.0,2.0,94,0.00,,,0.00,0.0,meteohub,2013-08-05 07:13:00,
2013-08-05 03:18:00,75.0,73.2,29.91,SSW,205,0.0,1.0,94,0.00,,,0.00,0.0,meteohub,2013-08-05 07:18:00,
2013-08-05 03:23:00,75.0,73.2,29.92,SSW,205,0.0,0.0,94,0.00,,,0.00,0.0,meteohub,2013-08-05 07:23:00,
2013-08-05 03:28:00,74.8,73.0,29.92,SSW,205,0.0,0.0,94,0.00,,,0.00,0.0,meteohub,2013-08-05 07:28:00,
2013-08-05 03:33:00,74.7,72.9,29.91,SSW,205,0.0,0.0,94,0.00,,,0.00,0.0,meteohub,2013-08-05 07:33:00,
2013-08-05 03:38:00,74.7,72.9,29.91,SSW,205,0.0,0.0,94,0.00,,,0.00,0.0,meteohub,2013-08-05 07:38:00,
2013-08-05 03:43:00,74.5,72.7,29.91,SSW,205,0.0,0.0,94,0.00,,,0.00,0.0,meteohub,2013-08-05 07:43:00,
2013-08-05 03:48:00,74.5,73.0,29.91,SSW,205,0.0,0.0,95,0.00,,,0.00,0.0,meteohub,2013-08-05 07:48:00,
2013-08-05 03:53:00,74.7,73.2,29.91,SSW,205,0.0,0.0,95,0.00,,,0.00,0.0,meteohub,2013-08-05 07:53:00,
2013-08-05 03:58:00,74.5,73.0,29.91,SSW,205,0.0,0.0,95,0.00,,,0.00,0.0,meteohub,2013-08-05 07:58:00,
2013-08-05 04:03:00,74.5,73.0,29.91,SSW,205,0.0,0.0,95,0.00,,,0.00,0.0,meteohub,2013-08-05 08:03:00,
2013-08-05 04:08:00,74.3,72.9,29.91,SSW,205,0.0,0.0,95,0.00,,,0.00,0.0,meteohub,2013-08-05 08:08:00,
2013-08-05 04:13:00,74.1,72.3,29.91,SSW,205,0.0,0.0,94,0.00,,,0.00,0.0,meteohub,2013-08-05 08:13:00,
2013-08-05 04:18:00,74.3,72.9,29.91,SSW,205,0.0,0.0,95,0.00,,,0.00,0.0,meteohub,2013-08-05 08:18:00,
2013-08-05 04:23:00,74.3,72.9,29.90,SSW,205,0.0,1.0,95,0.00,,,0.00,0.0,meteohub,2013-08-05 08:23:00,
2013-08-05 04:28:00,74.3,72.9,29.90,SSW,205,0.0,1.0,95,0.00,,,0.00,0.0,meteohub,2013-08-05 08:28:00,
2013-08-05 04:33:00,74.3,72.9,29.90,SSW,205,0.0,1.0,95,0.00,,,0.00,0.0,meteohub,2013-08-05 08:33:00,
2013-08-05 04:38:00,74.1,72.7,29.90,SSW,205,0.0,0.0,95,0.00,,,0.00,0.0,meteohub,2013-08-05 08:38:00,
2013-08-05 04:43:00,74.1,72.7,29.90,SSW,205,0.0,0.0,95,0.00,,,0.00,0.0,meteohub,2013-08-05 08:43:00,
2013-08-05 04:48:00,74.1,72.7,29.90,SSW,205,0.0,0.0,95,0.00,,,0.00,0.0,meteohub,2013-08-05 08:48:00,
2013-08-05 04:53:00,74.1,72.7,29.90,SSW,205,1.0,0.0,95,0.00,,,0.00,0.0,meteohub,2013-08-05 08:53:00,
2013-08-05 04:59:00,74.1,72.7,29.90,SSW,205,0.0,0.0,95,0.00,,,0.00,0.0,meteohub,2013-08-05 08:59:00,
2013-08-05 05:05:00,74.1,72.7,29.91,SSW,205,0.0,1.0,95,0.00,,,0.00,0.0,meteohub,2013-08-05 09:05:00,
2013-08-05 05:11:00,74.1,72.7,29.91,SSW,205,0.0,0.0,95,0.00,,,0.00,0.0,meteohub,2013-08-05 09:11:00,
2013-08-05 05:16:00,74.1,72.7,29.91,SSW,205,0.0,0.0,95,0.00,,,0.00,0.0,meteohub,2013-08-05 09:16:00,
2013-08-05 05:21:00,73.9,72.5,29.91,SSW,205,0.0,0.0,95,0.00,,,0.00,0.0,meteohub,2013-08-05 09:21:00,
2013-08-05 05:26:00,74.1,72.7,29.91,SSW,205,0.0,1.0,95,0.00,,,0.00,0.0,meteohub,2013-08-05 09:26:00,
2013-08-05 05:32:00,74.1,72.3,29.91,SSW,205,0.0,1.0,94,0.00,,,0.00,0.0,meteohub,2013-08-05 09:32:00,
2013-08-05 05:37:00,74.1,72.3,29.91,SSW,205,0.0,1.0,94,0.00,,,0.00,0.0,meteohub,2013-08-05 09:37:00,
2013-08-05 05:42:00,74.1,72.3,29.91,SSW,205,0.0,1.0,94,0.00,,,0.00,0.0,meteohub,2013-08-05 09:42:00,
2013-08-05 05:47:00,74.1,72.3,29.91,SSW,205,0.0,1.0,94,0.00,,,0.00,0.0,meteohub,2013-08-05 09:47:00,
2013-08-05 05:52:00,74.1,72.3,29.91,SW,214,0.0,1.0,94,0.00,,,0.00,0.0,meteohub,2013-08-05 09:52:00,
2013-08-05 05:57:00,74.3,72.5,29.92,SW,214,0.0,2.0,94,0.00,,,0.00,0.0,meteohub,2013-08-05 09:57:00,
2013-08-05 06:03:00,74.3,72.5,29.92,SW,214,0.0,2.0,94,0.00,,,0.00,0.0,meteohub,2013-08-05 10:03:00,
2013-08-05 06:08:00,74.3,72.5,29.92,SW,214,0.0,2.0,94,0.00,,,0.00,0.0,meteohub,2013-08-05 10:08:00,
2013-08-05 06:13:00,74.3,72.5,29.92,SW,214,0.0,1.0,94,0.00,,,0.00,0.0,meteohub,2013-08-05 10:13:00,
2013-08-05 06:18:00,74.3,72.5,29.92,SW,214,0.0,1.0,94,0.00,,,0.00,0.0,meteohub,2013-08-05 10:18:00,
2013-08-05 06:23:00,74.3,72.5,29.92,SW,214,0.0,1.0,94,0.00,,,0.00,0.0,meteohub,2013-08-05 10:23:00,
2013-08-05 06:28:00,74.1,72.3,29.92,SW,214,0.0,1.0,94,0.00,,,0.00,0.0,meteohub,2013-08-05 10:28:00,
2013-08-05 06:34:00,74.1,72.3,29.92,SW,214,0.0,1.0,94,0.00,,,0.00,0.0,meteohub,2013-08-05 10:34:00,
2013-08-05 06:39:00,73.9,72.1,29.92,SW,214,0.0,0.0,94,0.00,,,0.00,0.0,meteohub,2013-08-05 10:39:00,
2013-08-05 06:44:00,73.8,72.0,29.92,SW,214,0.0,0.0,94,0.00,,,0.00,0.0,meteohub,2013-08-05 10:44:00,
2013-08-05 06:50:00,73.8,72.0,29.92,SW,214,0.0,0.0,94,0.00,,,0.00,5.0,meteohub,2013-08-05 10:50:00,
2013-08-05 06:55:00,73.6,72.1,29.93,SW,214,0.0,0.0,95,0.00,,,0.00,9.0,meteohub,2013-08-05 10:55:00,
2013-08-05 07:00:00,73.8,72.3,29.93,SW,214,0.0,0.0,95,0.00,,,0.00,14.0,meteohub,2013-08-05 11:00:00,
2013-08-05 07:05:00,73.8,72.3,29.93,SW,214,0.0,0.0,95,0.00,,,0.00,19.0,meteohub,2013-08-05 11:05:00,
2013-08-05 07:11:00,73.8,72.3,29.93,SW,214,0.0,0.0,95,0.00,,,0.00,25.0,meteohub,2013-08-05 11:11:00,
2013-08-05 07:16:00,73.8,72.3,29.93,SW,214,0.0,0.0,95,0.00,,,0.00,35.0,meteohub,2013-08-05 11:16:00,
2013-08-05 07:21:00,73.8,72.3,29.93,SW,214,0.0,0.0,95,0.00,,,0.00,46.0,meteohub,2013-08-05 11:21:00,
2013-08-05 07:27:00,73.9,72.5,29.93,SW,214,0.0,0.0,95,0.00,,,0.00,69.0,meteohub,2013-08-05 11:27:00,
2013-08-05 07:32:00,74.1,72.7,29.93,SW,214,0.0,0.0,95,0.00,,,0.00,102.0,meteohub,2013-08-05 11:32:00,
2013-08-05 07:37:00,74.7,73.4,29.93,SW,214,0.0,0.0,96,0.00,,,0.00,130.0,meteohub,2013-08-05 11:37:00,
2013-08-05 07:42:00,75.0,73.4,29.93,SW,214,0.0,0.0,95,0.00,,,0.00,141.0,meteohub,2013-08-05 11:42:00,
2013-08-05 07:47:00,75.6,73.9,29.94,SW,214,0.0,0.0,95,0.00,,,0.00,109.0,meteohub,2013-08-05 11:47:00,
2013-08-05 07:53:00,75.7,73.9,29.94,SW,214,0.0,0.0,94,0.00,,,0.00,98.0,meteohub,2013-08-05 11:53:00,
2013-08-05 07:58:00,76.1,73.9,29.94,SW,218,0.0,1.0,93,0.00,,,0.00,155.0,meteohub,2013-08-05 11:58:00,
2013-08-05 08:03:00,76.5,73.9,29.94,WSW,242,0.0,1.0,92,0.00,,,0.00,163.0,meteohub,2013-08-05 12:03:00,
2013-08-05 08:08:00,76.6,74.1,29.94,WSW,242,0.0,2.0,92,0.00,,,0.00,174.0,meteohub,2013-08-05 12:08:00,
2013-08-05 08:14:00,77.0,74.1,29.94,West,271,0.0,2.0,91,0.00,,,0.00,204.0,meteohub,2013-08-05 12:14:00,
2013-08-05 08:19:00,77.4,74.1,29.94,WNW,298,0.0,2.0,90,0.00,,,0.00,216.0,meteohub,2013-08-05 12:19:00,
2013-08-05 08:24:00,77.7,74.5,29.94,WNW,303,0.0,2.0,90,0.00,,,0.00,223.0,meteohub,2013-08-05 12:24:00,
2013-08-05 08:29:00,77.9,74.7,29.95,WNW,303,0.0,3.0,90,0.00,,,0.00,155.0,meteohub,2013-08-05 12:29:00,
2013-08-05 08:34:00,78.1,74.5,29.95,NW,304,0.0,3.0,89,0.00,,,0.00,287.0,meteohub,2013-08-05 12:34:00,
2013-08-05 08:40:00,78.4,74.8,29.95,East,82,2.0,3.0,89,0.00,,,0.00,276.0,meteohub,2013-08-05 12:40:00,
2013-08-05 08:45:00,79.0,75.2,29.95,NNE,29,0.0,1.0,88,0.00,,,0.00,302.0,meteohub,2013-08-05 12:45:00,
2013-08-05 08:50:00,79.3,75.2,29.95,WNW,283,0.0,2.0,87,0.00,,,0.00,352.0,meteohub,2013-08-05 12:50:00,
2013-08-05 08:55:00,79.5,75.6,29.95,WNW,283,0.0,4.0,88,0.00,,,0.00,190.0,meteohub,2013-08-05 12:55:00,
2013-08-05 09:00:00,79.7,75.6,29.95,WNW,283,0.0,3.0,87,0.00,,,0.00,200.0,meteohub,2013-08-05 13:00:00,
2013-08-05 09:05:00,79.9,75.7,29.95,WNW,283,0.0,2.0,87,0.00,,,0.00,396.0,meteohub,2013-08-05 13:05:00,
2013-08-05 09:10:00,80.1,75.9,29.95,WNW,283,0.0,2.0,87,0.00,,,0.00,281.0,meteohub,2013-08-05 13:10:00,
2013-08-05 09:15:00,80.2,76.1,29.95,NNE,17,0.0,2.0,87,0.00,,,0.00,475.0,meteohub,2013-08-05 13:15:00,
2013-08-05 09:20:00,80.6,76.3,29.95,NNE,17,0.0,2.0,87,0.00,,,0.00,510.0,meteohub,2013-08-05 13:20:00,
2013-08-05 09:25:00,81.1,76.8,29.96,WNW,296,1.0,3.0,87,0.00,,,0.00,548.0,meteohub,2013-08-05 13:25:00,
2013-08-05 09:30:00,81.3,77.0,29.96,WNW,296,1.0,3.0,87,0.00,,,0.00,406.0,meteohub,2013-08-05 13:30:00,
2013-08-05 09:35:00,81.5,77.2,29.96,West,279,0.0,4.0,87,0.00,,,0.00,536.0,meteohub,2013-08-05 13:35:00,
2013-08-05 09:41:00,81.9,77.5,29.96,West,279,0.0,4.0,87,0.00,,,0.00,606.0,meteohub,2013-08-05 13:41:00,
2013-08-05 09:46:00,82.8,78.4,29.96,NNE,30,2.0,4.0,87,0.00,,,0.00,487.0,meteohub,2013-08-05 13:46:00,
2013-08-05 09:51:00,82.9,78.3,29.96,NNE,24,0.0,5.0,86,0.00,,,0.00,475.0,meteohub,2013-08-05 13:51:00,
2013-08-05 09:56:00,83.5,78.8,29.96,NE,49,0.0,5.0,86,0.00,,,0.00,475.0,meteohub,2013-08-05 13:56:00,
2013-08-05 10:02:00,83.7,78.3,29.96,NE,49,0.0,6.0,84,0.00,,,0.00,601.0,meteohub,2013-08-05 14:02:00,
2013-08-05 10:07:00,84.0,78.6,29.96,NNE,22,2.0,6.0,84,0.00,,,0.00,645.0,meteohub,2013-08-05 14:07:00,
2013-08-05 10:12:00,84.6,79.2,29.96,NE,40,5.0,6.0,84,0.00,,,0.00,656.0,meteohub,2013-08-05 14:12:00,
2013-08-05 10:17:00,84.4,79.0,29.96,NE,40,0.0,5.0,84,0.00,,,0.00,671.0,meteohub,2013-08-05 14:17:00,
2013-08-05 10:22:00,84.6,78.8,29.96,NE,40,2.0,8.0,83,0.00,,,0.00,594.0,meteohub,2013-08-05 14:22:00,
2013-08-05 10:26:00,84.7,78.6,29.96,East,99,0.0,8.0,82,0.00,,,0.00,555.0,meteohub,2013-08-05 14:26:00,
2013-08-05 10:32:00,84.7,78.6,29.96,NE,51,0.0,4.0,82,0.00,,,0.00,207.0,meteohub,2013-08-05 14:32:00,
2013-08-05 10:37:00,84.4,78.6,29.96,NE,51,0.0,3.0,83,0.00,,,0.00,195.0,meteohub,2013-08-05 14:37:00,
2013-08-05 10:42:00,84.4,78.6,29.96,NE,51,0.0,3.0,83,0.00,,,0.00,211.0,meteohub,2013-08-05 14:42:00,
2013-08-05 10:47:00,84.7,79.3,29.96,NE,51,0.0,3.0,84,0.00,,,0.00,292.0,meteohub,2013-08-05 14:47:00,
2013-08-05 10:52:00,84.9,79.2,29.96,North,9,0.0,2.0,83,0.00,,,0.00,452.0,meteohub,2013-08-05 14:52:00,
2013-08-05 10:57:00,84.6,78.4,29.96,NNE,24,1.0,3.0,82,0.00,,,0.00,341.0,meteohub,2013-08-05 14:57:00,
2013-08-05 11:03:00,84.6,78.4,29.96,NNE,32,1.0,7.0,82,0.00,,,0.00,977.0,meteohub,2013-08-05 15:03:00,
2013-08-05 11:08:00,85.3,78.8,29.96,NNE,27,3.0,7.0,81,0.00,,,0.00,891.0,meteohub,2013-08-05 15:08:00,
2013-08-05 11:13:00,85.3,78.1,29.96,NNE,24,3.0,7.0,79,0.00,,,0.00,902.0,meteohub,2013-08-05 15:13:00,
2013-08-05 11:18:00,85.3,78.4,29.96,NNE,27,1.0,5.0,80,0.00,,,0.00,865.0,meteohub,2013-08-05 15:18:00,
2013-08-05 11:23:00,85.3,78.8,29.96,NNE,29,2.0,6.0,81,0.00,,,0.00,388.0,meteohub,2013-08-05 15:23:00,
2013-08-05 11:29:00,84.9,78.8,29.96,East,87,0.0,6.0,82,0.00,,,0.00,281.0,meteohub,2013-08-05 15:29:00,
2013-08-05 11:34:00,84.9,78.8,29.96,ENE,64,0.0,6.0,82,0.00,,,0.00,387.0,meteohub,2013-08-05 15:34:00,
2013-08-05 11:39:00,85.6,78.4,29.95,NE,49,2.0,6.0,79,0.00,,,0.00,944.0,meteohub,2013-08-05 15:39:00,
2013-08-05 11:44:00,86.4,79.0,29.95,NE,51,5.0,5.0,79,0.00,,,0.00,940.0,meteohub,2013-08-05 15:44:00,
2013-08-05 11:49:00,86.5,78.4,29.95,NE,51,2.0,3.0,77,0.00,,,0.00,928.0,meteohub,2013-08-05 15:49:00,
2013-08-05 11:55:00,86.5,78.4,29.95,NNE,26,0.0,5.0,77,0.00,,,0.00,522.0,meteohub,2013-08-05 15:55:00,
2013-08-05 12:00:00,86.9,78.8,29.95,NNE,27,0.0,5.0,77,0.00,,,0.00,1078.0,meteohub,2013-08-05 16:00:00,
2013-08-05 12:04:00,88.2,79.2,29.95,East,87,1.0,4.0,75,0.00,,,0.00,1092.0,meteohub,2013-08-05 16:04:00,
2013-08-05 12:10:00,88.5,79.2,29.95,North,5,0.0,7.0,74,0.00,,,0.00,1071.0,meteohub,2013-08-05 16:10:00,
2013-08-05 12:15:00,88.2,79.2,29.95,NE,50,4.0,7.0,75,0.00,,,0.00,341.0,meteohub,2013-08-05 16:15:00,
2013-08-05 12:20:00,87.3,79.2,29.95,NNW,348,0.0,7.0,77,0.00,,,0.00,334.0,meteohub,2013-08-05 16:20:00,
2013-08-05 12:25:00,87.1,79.0,29.95,NE,38,2.0,7.0,77,0.00,,,0.00,388.0,meteohub,2013-08-05 16:25:00,
2013-08-05 12:30:00,87.1,79.0,29.95,NE,38,0.0,5.0,77,0.00,,,0.00,403.0,meteohub,2013-08-05 16:30:00,
2013-08-05 12:35:00,86.9,78.8,29.95,NE,40,0.0,5.0,77,0.00,,,0.00,387.0,meteohub,2013-08-05 16:35:00,
2013-08-05 12:40:00,86.4,77.9,29.94,NE,52,1.0,4.0,76,0.00,,,0.00,218.0,meteohub,2013-08-05 16:40:00,
2013-08-05 12:45:00,86.2,78.4,29.94,NE,53,0.0,4.0,78,0.00,,,0.00,162.0,meteohub,2013-08-05 16:45:00,
2013-08-05 12:51:00,85.8,78.6,29.94,NW,325,0.0,3.0,79,0.00,,,0.00,132.0,meteohub,2013-08-05 16:51:00,
2013-08-05 12:56:00,85.6,79.2,29.94,NW,325,0.0,1.0,81,0.00,,,0.00,144.0,meteohub,2013-08-05 16:56:00,
2013-08-05 13:01:00,85.6,78.8,29.94,NW,325,0.0,1.0,80,0.00,,,0.00,199.0,meteohub,2013-08-05 17:01:00,
2013-08-05 13:06:00,85.8,78.6,29.94,NW,325,0.0,1.0,79,0.00,,,0.00,533.0,meteohub,2013-08-05 17:06:00,
2013-08-05 13:11:00,86.7,78.6,29.94,NW,325,0.0,1.0,77,0.00,,,0.00,1014.0,meteohub,2013-08-05 17:11:00,
2013-08-05 13:16:00,87.8,78.8,29.94,NNE,22,4.0,4.0,75,0.00,,,0.00,1106.0,meteohub,2013-08-05 17:16:00,
2013-08-05 13:22:00,88.2,78.8,29.94,NNE,24,0.0,4.0,74,0.00,,,0.00,1062.0,meteohub,2013-08-05 17:22:00,
2013-08-05 13:27:00,88.9,79.2,29.94,SE,131,1.0,5.0,73,0.00,,,0.00,1042.0,meteohub,2013-08-05 17:27:00,
2013-08-05 13:32:00,88.7,79.0,29.94,ENE,65,3.0,5.0,73,0.00,,,0.00,204.0,meteohub,2013-08-05 17:32:00,
2013-08-05 13:37:00,87.6,77.9,29.93,East,87,0.0,5.0,73,0.00,,,0.00,264.0,meteohub,2013-08-05 17:37:00,
2013-08-05 13:42:00,87.6,79.2,29.93,NE,38,0.0,5.0,76,0.00,,,0.00,877.0,meteohub,2013-08-05 17:42:00,
2013-08-05 13:47:00,88.2,78.8,29.93,ENE,58,1.0,5.0,74,0.00,,,0.00,492.0,meteohub,2013-08-05 17:47:00,
2013-08-05 13:52:00,88.0,78.3,29.93,NNE,21,0.0,9.0,73,0.00,,,0.00,494.0,meteohub,2013-08-05 17:52:00,
2013-08-05 13:57:00,87.3,78.8,29.93,ESE,113,3.0,9.0,76,0.00,,,0.00,339.0,meteohub,2013-08-05 17:57:00,
2013-08-05 14:02:00,86.7,79.0,29.93,NE,44,7.0,13.0,78,0.00,,,0.00,1065.0,meteohub,2013-08-05 18:02:00,
2013-08-05 14:08:00,86.2,79.0,29.93,NE,52,8.0,13.0,79,0.00,,,0.00,369.0,meteohub,2013-08-05 18:08:00,
2013-08-05 14:13:00,85.5,78.6,29.93,East,88,2.0,14.0,80,0.00,,,0.00,984.0,meteohub,2013-08-05 18:13:00,
2013-08-05 14:18:00,85.6,79.2,29.93,ESE,111,3.0,14.0,81,0.00,,,0.00,963.0,meteohub,2013-08-05 18:18:00,
2013-08-05 14:23:00,85.8,79.0,29.92,East,80,9.0,16.0,80,0.00,,,0.00,942.0,meteohub,2013-08-05 18:23:00,
2013-08-05 14:28:00,85.6,78.8,29.92,ESE,117,0.0,16.0,80,0.00,,,0.00,882.0,meteohub,2013-08-05 18:28:00,
2013-08-05 14:33:00,85.8,78.1,29.93,NE,51,3.0,16.0,78,0.00,,,0.00,837.0,meteohub,2013-08-05 18:33:00,
2013-08-05 14:38:00,85.6,78.4,29.93,NE,42,6.0,12.0,79,0.00,,,0.00,863.0,meteohub,2013-08-05 18:38:00,
2013-08-05 14:43:00,85.6,78.4,29.93,North,5,0.0,10.0,79,0.00,,,0.00,932.0,meteohub,2013-08-05 18:43:00,
2013-08-05 14:49:00,86.2,79.0,29.93,NE,44,4.0,12.0,79,0.00,,,0.00,882.0,meteohub,2013-08-05 18:49:00,
2013-08-05 14:54:00,86.7,78.3,29.93,East,95,5.0,12.0,76,0.00,,,0.00,879.0,meteohub,2013-08-05 18:54:00,
2013-08-05 14:59:00,86.7,77.9,29.92,NE,41,4.0,9.0,75,0.00,,,0.00,853.0,meteohub,2013-08-05 18:59:00,
2013-08-05 15:04:00,87.1,78.3,29.92,ENE,60,0.0,11.0,75,0.00,,,0.00,874.0,meteohub,2013-08-05 19:04:00,
2013-08-05 15:09:00,87.1,77.4,29.92,NE,55,4.0,11.0,73,0.00,,,0.00,343.0,meteohub,2013-08-05 19:09:00,
2013-08-05 15:14:00,86.7,77.0,29.92,NE,49,8.0,11.0,73,0.00,,,0.00,272.0,meteohub,2013-08-05 19:14:00,
2013-08-05 15:19:00,86.5,77.7,29.91,NNE,31,5.0,11.0,75,0.00,,,0.00,900.0,meteohub,2013-08-05 19:19:00,
2013-08-05 15:24:00,86.9,78.4,29.91,NE,41,6.0,11.0,76,0.00,,,0.00,979.0,meteohub,2013-08-05 19:24:00,
2013-08-05 15:29:00,86.7,79.0,29.91,NE,43,2.0,11.0,78,0.00,,,0.00,895.0,meteohub,2013-08-05 19:29:00,
2013-08-05 15:35:00,86.7,79.3,29.91,ENE,74,0.0,11.0,79,0.00,,,0.00,889.0,meteohub,2013-08-05 19:35:00,
2013-08-05 15:40:00,86.7,78.6,29.91,NE,55,2.0,11.0,77,0.00,,,0.00,204.0,meteohub,2013-08-05 19:40:00,
2013-08-05 15:45:00,86.2,77.7,29.91,NNE,29,8.0,9.0,76,0.00,,,0.00,151.0,meteohub,2013-08-05 19:45:00,
2013-08-05 15:50:00,85.6,77.9,29.91,NE,55,3.0,11.0,78,0.00,,,0.00,893.0,meteohub,2013-08-05 19:50:00,
2013-08-05 15:55:00,85.6,77.9,29.91,NE,48,2.0,11.0,78,0.00,,,0.00,218.0,meteohub,2013-08-05 19:55:00,
2013-08-05 16:00:00,85.6,77.9,29.91,ENE,76,0.0,11.0,78,0.00,,,0.00,863.0,meteohub,2013-08-05 20:00:00,
2013-08-05 16:05:00,85.8,79.0,29.91,ENE,64,0.0,9.0,80,0.00,,,0.00,306.0,meteohub,2013-08-05 20:05:00,
2013-08-05 16:10:00,85.8,78.1,29.91,ENE,59,0.0,9.0,78,0.00,,,0.00,269.0,meteohub,2013-08-05 20:10:00,
2013-08-05 16:15:00,85.8,78.6,29.91,East,79,5.0,7.0,79,0.00,,,0.00,882.0,meteohub,2013-08-05 20:15:00,
2013-08-05 16:20:00,85.8,78.6,29.91,NE,35,2.0,7.0,79,0.00,,,0.00,302.0,meteohub,2013-08-05 20:20:00,
2013-08-05 16:25:00,85.5,79.0,29.91,ESE,117,4.0,8.0,81,0.00,,,0.00,302.0,meteohub,2013-08-05 20:25:00,
2013-08-05 16:31:00,85.3,78.4,29.91,North,0,4.0,9.0,80,0.00,,,0.00,712.0,meteohub,2013-08-05 20:31:00,
2013-08-05 16:36:00,85.3,78.4,29.91,ESE,108,1.0,9.0,80,0.00,,,0.00,722.0,meteohub,2013-08-05 20:36:00,
2013-08-05 16:41:00,85.6,78.4,29.91,NNE,32,6.0,12.0,79,0.00,,,0.00,642.0,meteohub,2013-08-05 20:41:00,
2013-08-05 16:46:00,85.6,78.8,29.91,SE,140,1.0,12.0,80,0.00,,,0.00,269.0,meteohub,2013-08-05 20:46:00,
2013-08-05 16:51:00,85.5,78.6,29.91,NE,39,6.0,12.0,80,0.00,,,0.00,320.0,meteohub,2013-08-05 20:51:00,
2013-08-05 16:56:00,85.6,78.8,29.91,ENE,59,1.0,12.0,80,0.00,,,0.00,663.0,meteohub,2013-08-05 20:56:00,
2013-08-05 17:01:00,85.8,79.0,29.91,NNE,26,4.0,9.0,80,0.00,,,0.00,694.0,meteohub,2013-08-05 21:01:00,
2013-08-05 17:07:00,85.3,78.1,29.91,NE,49,3.0,13.0,79,0.00,,,0.00,134.0,meteohub,2013-08-05 21:07:00,
2013-08-05 17:12:00,84.6,78.1,29.91,ENE,59,3.0,13.0,81,0.00,,,0.00,123.0,meteohub,2013-08-05 21:12:00,
2013-08-05 17:17:00,84.4,78.3,29.91,SE,134,1.0,13.0,82,0.00,,,0.00,193.0,meteohub,2013-08-05 21:17:00,
2013-08-05 17:22:00,84.4,78.6,29.91,East,90,3.0,8.0,83,0.00,,,0.00,174.0,meteohub,2013-08-05 21:22:00,
2013-08-05 17:27:00,84.2,78.4,29.91,NE,38,3.0,10.0,83,0.00,,,0.00,220.0,meteohub,2013-08-05 21:27:00,
2013-08-05 17:32:00,84.0,77.9,29.92,NE,46,1.0,10.0,82,0.00,,,0.00,44.0,meteohub,2013-08-05 21:32:00,
2013-08-05 17:37:00,83.7,77.5,29.92,ENE,57,0.0,10.0,82,0.00,,,0.00,60.0,meteohub,2013-08-05 21:37:00,
2013-08-05 17:42:00,83.1,77.4,29.91,East,80,0.0,7.0,83,0.00,,,0.00,62.0,meteohub,2013-08-05 21:42:00,
2013-08-05 17:47:00,82.9,77.5,29.91,ENE,78,1.0,7.0,84,0.00,,,0.00,54.0,meteohub,2013-08-05 21:47:00,
2013-08-05 17:52:00,82.6,77.2,29.91,NNE,33,0.0,7.0,84,0.00,,,0.00,56.0,meteohub,2013-08-05 21:52:00,
2013-08-05 17:57:00,82.6,77.2,29.91,ENE,59,0.0,5.0,84,0.00,,,0.00,54.0,meteohub,2013-08-05 21:57:00,
2013-08-05 18:03:00,82.3,77.0,29.91,ENE,67,2.0,-999.0,84,-99.99,,,0.00,54,weatherlink.com 1.10,2013-08-05 22:03:00,
2013-08-05 18:08:00,82.2,76.8,29.91,East,81,0.0,8.0,84,0.00,,,0.00,53.0,meteohub,2013-08-05 22:08:00,
2013-08-05 18:13:00,82.0,76.6,29.91,ENE,75,3.0,8.0,84,0.00,,,0.00,58.0,meteohub,2013-08-05 22:13:00,
2013-08-05 18:18:00,82.0,77.0,29.91,ENE,76,1.0,8.0,85,0.00,,,0.00,51.0,meteohub,2013-08-05 22:18:00,
2013-08-05 18:24:00,82.0,77.4,29.90,ENE,75,4.0,8.0,86,0.00,,,0.00,56.0,meteohub,2013-08-05 22:24:00,
2013-08-05 18:28:00,82.0,77.4,29.90,East,99,2.0,8.0,86,0.00,,,0.00,56.0,meteohub,2013-08-05 22:28:00,
2013-08-05 18:34:00,82.0,77.0,29.90,NE,50,0.0,5.0,85,0.00,,,0.00,54.0,meteohub,2013-08-05 22:34:00,
2013-08-05 18:39:00,82.0,77.0,29.91,NE,55,0.0,5.0,85,0.00,,,0.00,56.0,meteohub,2013-08-05 22:39:00,
2013-08-05 18:44:00,82.0,76.6,29.91,ENE,67,0.0,7.0,84,0.00,,,0.00,53.0,meteohub,2013-08-05 22:44:00,
2013-08-05 18:49:00,82.0,77.0,29.91,ENE,63,1.0,7.0,85,0.00,,,0.00,54.0,meteohub,2013-08-05 22:49:00,
2013-08-05 18:54:00,82.0,77.4,29.91,East,92,0.0,7.0,86,0.00,,,0.00,49.0,meteohub,2013-08-05 22:54:00,
2013-08-05 18:59:00,81.9,76.8,29.91,NE,48,1.0,7.0,85,0.00,,,0.00,56.0,meteohub,2013-08-05 22:59:00,
2013-08-05 19:05:00,81.9,77.2,29.91,NE,53,0.0,6.0,86,0.00,,,0.00,53.0,meteohub,2013-08-05 23:05:00,
2013-08-05 19:10:00,81.9,77.5,29.91,East,88,0.0,6.0,87,0.00,,,0.00,49.0,meteohub,2013-08-05 23:10:00,
2013-08-05 19:15:00,81.7,77.0,29.91,East,86,0.0,6.0,86,0.00,,,0.00,47.0,meteohub,2013-08-05 23:15:00,
2013-08-05 19:20:00,81.7,77.4,29.91,ENE,58,0.0,8.0,87,0.00,,,0.00,44.0,meteohub,2013-08-05 23:20:00,
2013-08-05 19:25:00,81.7,77.0,29.91,SE,140,2.0,8.0,86,0.00,,,0.00,32.0,meteohub,2013-08-05 23:25:00,
2013-08-05 19:30:00,81.5,77.2,29.91,ENE,69,0.0,8.0,87,0.00,,,0.00,33.0,meteohub,2013-08-05 23:30:00,
2013-08-05 19:35:00,81.3,77.4,29.92,ENE,67,3.0,8.0,88,0.00,,,0.00,28.0,meteohub,2013-08-05 23:35:00,
2013-08-05 19:40:00,81.1,77.2,29.92,ESE,119,0.0,8.0,88,0.00,,,0.00,28.0,meteohub,2013-08-05 23:40:00,
2013-08-05 19:45:00,81.0,77.0,29.93,ENE,67,0.0,7.0,88,0.00,,,0.00,25.0,meteohub,2013-08-05 23:45:00,
2013-08-05 19:50:00,81.0,77.0,29.93,NE,56,0.0,10.0,88,0.00,,,0.00,18.0,meteohub,2013-08-05 23:50:00,
2013-08-05 19:56:00,81.0,77.0,29.93,NE,43,2.0,10.0,88,0.00,,,0.00,14.0,meteohub,2013-08-05 23:56:00,
2013-08-05 20:01:00,80.8,76.8,29.93,ESE,106,0.0,10.0,88,0.00,,,0.00,11.0,meteohub,2013-08-06 00:01:00,
2013-08-05 20:06:00,80.8,76.8,29.93,NE,56,0.0,8.0,88,0.00,,,0.00,7.0,meteohub,2013-08-06 00:06:00,
2013-08-05 20:12:00,80.6,76.6,29.93,ESE,116,0.0,8.0,88,0.00,,,0.00,0.0,meteohub,2013-08-06 00:12:00,
2013-08-05 20:17:00,80.6,76.6,29.94,ENE,77,0.0,6.0,88,0.00,,,0.00,0.0,meteohub,2013-08-06 00:17:00,
2013-08-05 20:22:00,80.6,76.6,29.94,NE,51,0.0,6.0,88,0.00,,,0.00,0.0,meteohub,2013-08-06 00:22:00,
2013-08-05 20:27:00,80.8,77.2,29.94,NE,46,1.0,5.0,89,0.00,,,0.00,0.0,meteohub,2013-08-06 00:27:00,
2013-08-05 20:32:00,80.8,76.8,29.94,ENE,62,0.0,4.0,88,0.00,,,0.00,0.0,meteohub,2013-08-06 00:32:00,
2013-08-05 20:37:00,80.8,76.8,29.94,NE,40,1.0,9.0,88,0.00,,,0.00,0.0,meteohub,2013-08-06 00:37:00,
2013-08-05 20:42:00,80.8,76.8,29.95,NE,54,0.0,9.0,88,0.00,,,0.00,0.0,meteohub,2013-08-06 00:42:00,
2013-08-05 20:47:00,80.8,77.2,29.95,NE,47,0.0,9.0,89,0.00,,,0.00,0.0,meteohub,2013-08-06 00:47:00,
2013-08-05 20:52:00,80.6,77.0,29.95,East,95,0.0,5.0,89,0.00,,,0.00,0.0,meteohub,2013-08-06 00:52:00,
2013-08-05 20:57:00,80.6,77.0,29.95,East,95,0.0,5.0,89,0.00,,,0.00,0.0,meteohub,2013-08-06 00:57:00,
2013-08-05 21:02:00,80.6,76.6,29.95,SSE,153,0.0,4.0,88,0.00,,,0.00,0.0,meteohub,2013-08-06 01:02:00,
2013-08-05 21:07:00,80.6,76.6,29.95,ESE,114,4.0,5.0,88,0.00,,,0.00,0.0,meteohub,2013-08-06 01:07:00,
2013-08-05 21:12:00,80.6,76.6,29.96,NE,56,0.0,5.0,88,0.00,,,0.00,0.0,meteohub,2013-08-06 01:12:00,
2013-08-05 21:18:00,80.5,77.0,29.96,East,99,5.0,-999.0,88,-99.99,,,0.00,0,weatherlink.com 1.10,2013-08-06 01:18:00,
2013-08-05 21:23:00,80.4,76.5,29.96,East,92,1.0,7.0,88,0.00,,,0.00,0.0,meteohub,2013-08-06 01:23:00,
2013-08-05 21:28:00,80.4,76.5,29.96,East,101,3.0,7.0,88,0.00,,,0.00,0.0,meteohub,2013-08-06 01:28:00,
2013-08-05 21:33:00,80.4,77.0,29.96,East,84,0.0,-999.0,88,-99.99,,,0.00,0,weatherlink.com 1.10,2013-08-06 01:33:00,
2013-08-05 21:38:00,80.4,76.5,29.96,East,84,0.0,5.0,88,0.00,,,0.00,0.0,meteohub,2013-08-06 01:38:00,
2013-08-05 21:43:00,80.2,76.3,29.96,NE,55,0.0,6.0,88,0.00,,,0.00,0.0,meteohub,2013-08-06 01:43:00,
2013-08-05 21:49:00,80.2,76.3,29.96,East,95,0.0,6.0,88,0.00,,,0.00,0.0,meteohub,2013-08-06 01:49:00,
2013-08-05 21:54:00,80.2,76.3,29.96,East,96,1.0,6.0,88,0.00,,,0.00,0.0,meteohub,2013-08-06 01:54:00,
2013-08-05 21:59:00,80.2,76.6,29.96,ENE,78,0.0,3.0,89,0.00,,,0.00,0.0,meteohub,2013-08-06 01:59:00,
2013-08-05 22:04:00,80.2,76.6,29.96,SE,132,0.0,2.0,89,0.00,,,0.00,0.0,meteohub,2013-08-06 02:04:00,
2013-08-05 22:09:00,80.2,76.6,29.96,ENE,70,0.0,4.0,89,0.00,,,0.00,0.0,meteohub,2013-08-06 02:09:00,
2013-08-05 22:14:00,80.1,76.5,29.96,ENE,70,0.0,4.0,89,0.00,,,0.00,0.0,meteohub,2013-08-06 02:14:00,
2013-08-05 22:20:00,80.1,76.5,29.96,ENE,70,0.0,4.0,89,0.00,,,0.00,0.0,meteohub,2013-08-06 02:20:00,
2013-08-05 22:25:00,80.2,76.6,29.96,ENE,65,0.0,2.0,89,0.00,,,0.00,0.0,meteohub,2013-08-06 02:25:00,
2013-08-05 22:30:00,80.2,76.3,29.96,ENE,65,0.0,3.0,88,0.00,,,0.00,0.0,meteohub,2013-08-06 02:30:00,
2013-08-05 22:37:00,80.4,76.5,29.96,East,95,0.0,5.0,88,0.00,,,0.00,0.0,meteohub,2013-08-06 02:37:00,
2013-08-05 22:42:00,80.4,76.5,29.96,East,101,0.0,5.0,88,0.00,,,0.00,0.0,meteohub,2013-08-06 02:42:00,
2013-08-05 22:47:00,80.6,76.6,29.96,ESE,121,1.0,5.0,88,0.00,,,0.00,0.0,meteohub,2013-08-06 02:47:00,
2013-08-05 22:52:00,80.6,76.6,29.96,East,83,0.0,3.0,88,0.00,,,0.00,0.0,meteohub,2013-08-06 02:52:00,
2013-08-05 22:57:00,80.4,76.5,29.96,SSE,161,0.0,3.0,88,0.00,,,0.00,0.0,meteohub,2013-08-06 02:57:00,
2013-08-05 23:02:00,80.4,76.5,29.95,East,80,1.0,3.0,88,0.00,,,0.00,0.0,meteohub,2013-08-06 03:02:00,
2013-08-05 23:08:00,80.4,76.5,29.96,NE,56,0.0,3.0,88,0.00,,,0.00,0.0,meteohub,2013-08-06 03:08:00,
2013-08-05 23:13:00,80.2,76.3,29.95,ESE,113,0.0,5.0,88,0.00,,,0.00,0.0,meteohub,2013-08-06 03:13:00,
2013-08-05 23:18:00,80.3,77.0,29.96,NE,54,0.0,-999.0,88,-99.99,,,0.00,0,weatherlink.com 1.10,2013-08-06 03:18:00,
2013-08-05 23:23:00,80.2,76.3,29.96,East,86,0.0,3.0,88,0.00,,,0.00,0.0,meteohub,2013-08-06 03:23:00,
2013-08-05 23:28:00,80.2,76.3,29.96,ENE,72,3.0,3.0,88,0.00,,,0.00,0.0,meteohub,2013-08-06 03:28:00,
2013-08-05 23:33:00,80.2,76.6,29.96,ESE,120,0.0,5.0,89,0.00,,,0.00,0.0,meteohub,2013-08-06 03:33:00,
2013-08-05 23:38:00,80.2,76.6,29.96,NE,35,0.0,7.0,89,0.00,,,0.00,0.0,meteohub,2013-08-06 03:38:00,
2013-08-05 23:44:00,80.2,76.6,29.95,NE,56,1.0,7.0,89,0.00,,,0.00,0.0,meteohub,2013-08-06 03:44:00,
2013-08-05 23:50:00,80.1,76.5,29.95,NE,56,0.0,3.0,89,0.00,,,0.00,0.0,meteohub,2013-08-06 03:50:00,
2013-08-05 23:55:00,80.1,76.5,29.96,ESE,105,1.0,3.0,89,0.00,,,0.00,0.0,meteohub,2013-08-06 03:55:00,